TimePDT,TemperatureF,Dew PointF,Humidity,Sea Level PressureIn,VisibilityMPH,Wind Direction,Wind SpeedMPH,Gust SpeedMPH,PrecipitationIn,Events,Conditions,WindDirDegrees,DateUTC
12:53 AM,62.1,27.0,26,29.95,10.0,North,4.6,-,N/A,,Clear,10,2013-09-06 07:53:00
1:53 AM,62.1,27.0,26,29.95,10.0,Calm,Calm,-,N/A,,Clear,0,2013-09-06 08:53:00
2:53 AM,64.0,27.0,25,29.96,10.0,North,12.7,-,N/A,,Clear,10,2013-09-06 09:53:00
3:53 AM,63.0,27.0,26,29.97,10.0,North,11.5,-,N/A,,Clear,10,2013-09-06 10:53:00
4:53 AM,59.0,26.1,28,29.98,10.0,NNE,6.9,-,N/A,,Clear,30,2013-09-06 11:53:00
5:53 AM,59.0,26.1,28,30.00,10.0,NNE,8.1,-,N/A,,Clear,30,2013-09-06 12:53:00
6:53 AM,53.1,26.1,35,30.03,10.0,Variable,4.6,-,N/A,,Clear,0,2013-09-06 13:53:00
7:53 AM,57.0,28.9,34,30.05,10.0,SE,3.5,-,N/A,,Clear,130,2013-09-06 14:53:00
8:53 AM,68.0,27.0,21,30.04,10.0,NNE,8.1,-,N/A,,Clear,30,2013-09-06 15:53:00
9:53 AM,73.0,28.9,20,30.02,10.0,NE,9.2,-,N/A,,Clear,40,2013-09-06 16:53:00
10:53 AM,77.0,30.0,18,30.01,10.0,Variable,5.8,-,N/A,,Clear,0,2013-09-06 17:53:00
11:53 AM,79.0,34.0,20,30.00,10.0,Variable,4.6,-,N/A,,Clear,0,2013-09-06 18:53:00
12:53 PM,82.0,33.1,17,29.99,10.0,Calm,Calm,-,N/A,,Clear,0,2013-09-06 19:53:00
1:53 PM,82.9,34.0,17,29.96,10.0,South,4.6,-,N/A,,Clear,190,2013-09-06 20:53:00
2:53 PM,86.0,33.1,15,29.92,10.0,Calm,Calm,-,N/A,,Clear,0,2013-09-06 21:53:00
3:53 PM,87.1,30.9,13,29.90,10.0,Variable,4.6,-,N/A,,Clear,0,2013-09-06 22:53:00
4:53 PM,88.0,28.0,12,29.88,10.0,NW,15.0,-,N/A,,Clear,310,2013-09-06 23:53:00
5:53 PM,86.0,28.9,13,29.88,10.0,NNW,10.4,-,N/A,,Clear,330,2013-09-07 00:53:00
6:53 PM,82.9,28.0,14,29.90,10.0,North,9.2,-,N/A,,Clear,350,2013-09-07 01:53:00
7:53 PM,75.0,28.9,18,29.92,10.0,North,6.9,-,N/A,,Clear,350,2013-09-07 02:53:00
8:53 PM,73.9,28.0,18,29.93,10.0,NNE,11.5,-,N/A,,Clear,20,2013-09-07 03:53:00
9:53 PM,71.1,25.0,18,29.94,10.0,North,6.9,-,N/A,,Clear,10,2013-09-07 04:53:00
10:53 PM,64.0,25.0,23,29.95,10.0,NE,3.5,-,N/A,,Clear,50,2013-09-07 05:53:00
11:53 PM,68.0,23.0,18,29.94,10.0,North,9.2,-,N/A,,Clear,10,2013-09-07 06:53:00